• In Lithuania
  • List of Countries
  • For 7 days
  • Water Temperature
  • Satellite Maps
  • Weather Map
  • Weather Widgets
  • user-avatar
    Login

    Hourly Weather Koblevo

    Today, 26 September, Wednesday

    Time Temperature Precipitation Wind Pressure Humidity
    00:00 +8°C° 0 mm 7 mps 768 mmHg 60%
    01:00 +8°C° 0 mm 7 mps 768 mmHg 62%
    02:00 +6°C° 0 mm 7 mps 768 mmHg 65%
    03:00 +6°C° 0 mm 7 mps 769 mmHg 67%
    04:00 +5°C° 0 mm 7 mps 769 mmHg 69%
    05:00 +5°C° 0 mm 6 mps 769 mmHg 71%
    06:00 +6°C° 0 mm 7 mps 770 mmHg 69%
    07:00 +6°C° 0 mm 7 mps 770 mmHg 67%
    08:00 +8°C° 0 mm 7 mps 770 mmHg 65%
    09:00 +10°C° 0 mm 6 mps 771 mmHg 58%
    10:00 +11°C° 0 mm 6 mps 771 mmHg 52%
    11:00 +13°C° 0 mm 6 mps 771 mmHg 45%
    12:00 +14°C° 0 mm 6 mps 771 mmHg 43%
    13:00 +14°C° 0 mm 6 mps 771 mmHg 40%
    14:00 +14°C° 0 mm 6 mps 771 mmHg 38%
    15:00 +14°C° 0 mm 5 mps 771 mmHg 38%
    16:00 +13°C° 0 mm 5 mps 771 mmHg 38%
    17:00 +13°C° 0 mm 5 mps 771 mmHg 38%
    18:00 +12°C° 0 mm 5 mps 771 mmHg 40%
    19:00 +11°C° 0 mm 4 mps 771 mmHg 42%
    20:00 +10°C° 0 mm 4 mps 771 mmHg 44%
    21:00 +8°C° 0 mm 4 mps 772 mmHg 45%
    22:00 +8°C° 0 mm 4 mps 772 mmHg 47%
    23:00 +8°C° 0 mm 3 mps 772 mmHg 48%

    Tomorrow, 27 September, Thursday

    Time Temperature Precipitation Wind Pressure Humidity
    00:00 +8°C° 0 mm 3 mps 772 mmHg 49%
    01:00 +8°C° 0 mm 3 mps 771 mmHg 50%
    02:00 +7°C° 0 mm 2 mps 771 mmHg 51%
    03:00 +7°C° 0 mm 2 mps 771 mmHg 51%
    04:00 +7°C° 0 mm 2 mps 771 mmHg 52%
    05:00 +7°C° 0 mm 2 mps 770 mmHg 53%
    06:00 +8°C° 0 mm 2 mps 770 mmHg 50%
    07:00 +9°C° 0 mm 2 mps 770 mmHg 47%
    08:00 +10°C° 0 mm 2 mps 770 mmHg 44%
    09:00 +12°C° 0 mm 3 mps 770 mmHg 39%
    10:00 +13°C° 0 mm 3 mps 770 mmHg 34%
    11:00 +15°C° 0 mm 4 mps 769 mmHg 30%
    12:00 +17°C° 0 mm 4 mps 769 mmHg 28%
    13:00 +18°C° 0 mm 4 mps 769 mmHg 26%
    14:00 +19°C° 0 mm 4 mps 768 mmHg 24%
    15:00 +18°C° 0 mm 4 mps 768 mmHg 26%
    16:00 +18°C° 0 mm 4 mps 767 mmHg 28%
    17:00 +18°C° 0 mm 3 mps 767 mmHg 30%
    18:00 +17°C° 0 mm 3 mps 767 mmHg 32%
    19:00 +16°C° 0 mm 3 mps 767 mmHg 33%
    20:00 +14°C° 0 mm 3 mps 767 mmHg 35%
    21:00 +14°C° 0 mm 3 mps 767 mmHg 37%
    22:00 +13°C° 0 mm 3 mps 767 mmHg 39%
    23:00 +13°C° 0 mm 3 mps 767 mmHg 40%

    Day after tomorrow, 28 September, Friday

    Time Temperature Precipitation Wind Pressure Humidity
    00:00 +13°C° 0 mm 3 mps 767 mmHg 43%
    01:00 +13°C° 0 mm 3 mps 766 mmHg 46%
    02:00 +13°C° 0 mm 3 mps 766 mmHg 48%
    03:00 +12°C° 0 mm 3 mps 766 mmHg 52%
    04:00 +13°C° 0 mm 2 mps 765 mmHg 56%
    05:00 +13°C° 0 mm 2 mps 765 mmHg 60%
    06:00 +13°C° 0 mm 2 mps 765 mmHg 59%
    07:00 +14°C° 0 mm 1 mps 765 mmHg 59%
    08:00 +14°C° 0 mm 0 mps 764 mmHg 58%
    09:00 +16°C° 0 mm 1 mps 764 mmHg 55%
    10:00 +19°C° 0 mm 1 mps 764 mmHg 52%
    11:00 +19°C° 0 mm 2 mps 764 mmHg 49%
    12:00 +20°C° 0 mm 2 mps 763 mmHg 47%
    13:00 +21°C° 0 mm 3 mps 763 mmHg 46%
    14:00 +22°C° 0 mm 3 mps 762 mmHg 44%
    15:00 +22°C° 0 mm 3 mps 761 mmHg 46%
    16:00 +21°C° 0 mm 3 mps 761 mmHg 47%
    17:00 +21°C° 0 mm 3 mps 760 mmHg 48%
    18:00 +20°C° 0 mm 3 mps 761 mmHg 52%
    19:00 +18°C° 0 mm 4 mps 761 mmHg 55%
    20:00 +17°C° 0 mm 4 mps 761 mmHg 58%
    21:00 +17°C° 0 mm 4 mps 761 mmHg 59%
    22:00 +17°C° 0 mm 4 mps 761 mmHg 60%
    23:00 +15°C° 0 mm 4 mps 760 mmHg 61%

    29 September, Saturday

    Time Temperature Precipitation Wind Pressure Humidity
    00:00 +15°C° 0 mm 4 mps 760 mmHg 60%
    01:00 +14°C° 0 mm 3 mps 760 mmHg 60%
    02:00 +14°C° 0 mm 3 mps 760 mmHg 59%
    03:00 +14°C° 0 mm 3 mps 760 mmHg 58%
    04:00 +14°C° 0 mm 2 mps 760 mmHg 57%
    05:00 +14°C° 0 mm 2 mps 759 mmHg 56%
    06:00 +15°C° 0 mm 2 mps 759 mmHg 53%
    07:00 +16°C° 0 mm 2 mps 759 mmHg 50%
    08:00 +18°C° 0 mm 1 mps 759 mmHg 46%
    09:00 +20°C° 0 mm 1 mps 759 mmHg 43%
    10:00 +20°C° 0 mm 2 mps 759 mmHg 39%
    11:00 +23°C° 0 mm 2 mps 759 mmHg 35%
    12:00 +23°C° 0 mm 2 mps 759 mmHg 34%
    13:00 +24°C° 0 mm 2 mps 758 mmHg 34%
    14:00 +25°C° 0 mm 3 mps 758 mmHg 33%
    15:00 +24°C° 0 mm 3 mps 758 mmHg 34%
    16:00 +24°C° 0 mm 3 mps 758 mmHg 36%
    17:00 +23°C° 0 mm 2 mps 758 mmHg 38%
    18:00 +21°C° 0 mm 3 mps 759 mmHg 45%
    19:00 +20°C° 0 mm 4 mps 759 mmHg 51%
    20:00 +19°C° 0 mm 4 mps 760 mmHg 58%
    21:00 +17°C° 0 mm 5 mps 760 mmHg 63%
    22:00 +16°C° 0 mm 6 mps 760 mmHg 69%
    23:00 +15°C° 0 mm 7 mps 760 mmHg 74%

    30 September, Sunday

    Time Temperature Precipitation Wind Pressure Humidity
    00:00 +14°C° 0 mm 7 mps 761 mmHg 74%
    01:00 +13°C° 0 mm 8 mps 761 mmHg 75%
    02:00 +12°C° 0 mm 8 mps 761 mmHg 76%
    03:00 +12°C° 0 mm 8 mps 762 mmHg 75%
    04:00 +12°C° 0 mm 8 mps 762 mmHg 74%
    05:00 +11°C° 0 mm 9 mps 762 mmHg 74%
    06:00 +12°C° 0 mm 9 mps 763 mmHg 71%
    07:00 +12°C° 0 mm 9 mps 763 mmHg 68%
    08:00 +12°C° 0 mm 9 mps 763 mmHg 65%
    09:00 +13°C° 0 mm 9 mps 764 mmHg 60%
    10:00 +15°C° 0 mm 8 mps 764 mmHg 55%
    11:00 +17°C° 0 mm 8 mps 764 mmHg 50%
    12:00 +17°C° 0 mm 8 mps 764 mmHg 47%
    13:00 +18°C° 0 mm 7 mps 764 mmHg 45%
    14:00 +20°C° 0 mm 7 mps 764 mmHg 42%
    15:00 +18°C° 0 mm 7 mps 764 mmHg 43%
    16:00 +18°C° 0 mm 7 mps 764 mmHg 44%
    17:00 +17°C° 0 mm 7 mps 764 mmHg 45%
    18:00 +16°C° 0 mm 7 mps 764 mmHg 47%
    19:00 +15°C° 0 mm 6 mps 764 mmHg 49%
    20:00 +14°C° 0 mm 6 mps 764 mmHg 51%
    21:00 +13°C° 0 mm 6 mps 764 mmHg 51%
    22:00 +13°C° 0 mm 6 mps 764 mmHg 51%
    23:00 +11°C° 0 mm 6 mps 764 mmHg 51%

    1 October, Monday

    Time Temperature Precipitation Wind Pressure Humidity
    00:00 +11°C° 0 mm 6 mps 763 mmHg 52%
    01:00 +10°C° 0 mm 6 mps 763 mmHg 52%
    02:00 +10°C° 0 mm 6 mps 763 mmHg 53%
    03:00 +10°C° 0 mm 6 mps 763 mmHg 54%
    04:00 +9°C° 0 mm 6 mps 763 mmHg 55%
    05:00 +9°C° 0 mm 6 mps 763 mmHg 56%
    06:00 +10°C° 0 mm 6 mps 762 mmHg 55%
    07:00 +10°C° 0 mm 6 mps 762 mmHg 54%
    08:00 +11°C° 0 mm 6 mps 762 mmHg 53%
    09:00 +14°C° 0 mm 6 mps 762 mmHg 49%
    10:00 +15°C° 0 mm 6 mps 761 mmHg 46%
    11:00 +17°C° 0 mm 6 mps 761 mmHg 42%
    12:00 +19°C° 0 mm 5 mps 761 mmHg 41%
    13:00 +20°C° 0 mm 5 mps 760 mmHg 40%
    14:00 +21°C° 0 mm 5 mps 759 mmHg 38%
    15:00 +20°C° 0 mm 5 mps 759 mmHg 40%
    16:00 +20°C° 0 mm 5 mps 759 mmHg 42%
    17:00 +19°C° 0 mm 5 mps 759 mmHg 44%
    18:00 +17°C° 0 mm 5 mps 758 mmHg 47%
    19:00 +16°C° 0 mm 5 mps 758 mmHg 50%
    20:00 +15°C° 0 mm 5 mps 758 mmHg 52%
    21:00 +14°C° 0 mm 4 mps 758 mmHg 55%
    22:00 +14°C° 0 mm 4 mps 758 mmHg 58%
    23:00 +13°C° 0 mm 4 mps 758 mmHg 61%
    Show more